Location: *
(46.1833°N, 22.7667°E)
Time: 15:02:10
(UTC+00:00)

SL-08 RB Rocket - Pass Details

Date: 17 September 2019
Orbit: 646 x 685 km, 97.9° (Epoch: 17 October)

Event Time Altitude Azimuth Distance (km) Brightness Sun altitude
Exits shadow 18:25:22 37° 137° (SE) 1,070 4.3 -18.9°
Maximum altitude 18:27:04 62° 73° (ENE) 776 3.8 -19.2°
Drops below altitude 10° 18:31:42 10° 353° (N) 2,142 6.7 -19.9°
Sets 18:33:58 0° 351° (N) 3,061 7.6 -20.2°
